Home   Weather   Jackson   Past weeks

Flag for USA Past Weather in Jackson, Mississippi, USA — Yesterday and Last 2 Weeks

57 °F


Feels Like: 57 °F
Forecast: 49 / 78 °F
Wind: No wind

Location: Hawkins Field

Current Time: Oct 24, 2016 at 12:13:39 AM

Latest Report: Oct 23, 2016 at 10:53 PM

Visibility: 10 mi

Pressure: 30.24 "Hg

Humidity: 67%

Dew Point: 46 °F

Location of JacksonLocation

Past Weather in Jackson — Graph


Jackson Temperature Yesterday

Maximum temperature yesterday: 80 °F (at 2:53 PM)
Minimum temperature yesterday: 45 °F (at 5:53 AM)
Average temperature yesterday: 62 °F

High & Low Weather Summary for the Past Weeks

High90 °F (Oct 18, 2:53 PM)97% (Oct 19, 3:53 AM)30.28 "Hg (Oct 19, 3:53 AM)
Low43 °F (Oct 22, 4:53 AM)17% (Oct 9, 4:53 PM)29.85 "Hg (Oct 17, 4:53 PM)
Average71 °F61%30.09 "Hg
* Reported Oct 8 10:53 PM — Oct 23 10:53 PM, Jackson, Weather by CustomWeather, © 2016

Note: Actual official high and low records may vary slightly from our data, if they occured in-between our weather recording intervals... More about our weather records


Jackson Weather History for the Previous 24 Hours

Scroll right to see more
Time TempWeatherWind HumidityBarometerVisibility
10:53 PM
Sun, Oct 23
57 °FClear.No wind67%30.24 "Hg10 mi
9:53 PM60 °FClear.No wind58%30.23 "Hg10 mi
8:53 PM62 °FClear.No wind52%30.22 "Hg10 mi
7:53 PM63 °FClear.No wind50%30.20 "Hg10 mi
6:53 PM69 °FClear.No wind35%30.18 "Hg10 mi
5:53 PM73 °FSunny.6 mph28%30.17 "Hg10 mi
4:53 PM79 °FSunny.6 mph21%30.17 "Hg10 mi
3:53 PM80 °FSunny.8 mph19%30.18 "Hg10 mi
2:53 PM80 °FSunny.7 mph19%30.19 "Hg10 mi
1:53 PM78 °FSunny.6 mph21%30.20 "Hg10 mi
12:53 PM77 °FSunny.5 mph24%30.23 "Hg10 mi
11:53 AM74 °FSunny.6 mph26%30.26 "Hg10 mi
10:53 AM71 °FSunny.6 mph32%30.27 "Hg10 mi
9:53 AM66 °FSunny.5 mph40%30.28 "Hg10 mi
8:53 AM55 °FSunny.3 mph74%30.27 "Hg10 mi
7:53 AM46 °FSunny.No wind93%30.26 "Hg10 mi
6:53 AM46 °FClear.No wind89%30.24 "Hg10 mi
5:53 AM45 °FClear.No wind93%30.22 "Hg10 mi
4:53 AM46 °FClear.No wind93%30.20 "Hg10 mi
3:53 AM47 °FClear.No wind90%30.18 "Hg10 mi
2:53 AM48 °FClear.No wind86%30.18 "Hg10 mi
1:53 AM48 °FClear.No wind89%30.18 "Hg9 mi
12:53 AM50 °FClear.No wind80%30.18 "Hg10 mi
Weather by CustomWeather, © 2016

See weather overviewHow to use our weather pages